Regional Weather Roundup
Issued by NWS

Home | Current Version | Previous Version | Graphics & Text | Print | Product List | Glossary On
Versions: 1 2 3 4 5 6 7 8 9 10 11 12 13 14 15 16 17 18 19 20 21 22 23 24 25 26 27
000
ASUS45 KBOU 251210
RWRCO

WEATHER ROUNDUP FOR COLORADO
NATIONAL WEATHER SERVICE DENVER/BOULDER CO
600 AM MDT SUN SEP 25 2016

NOTE: "FAIR" INDICATES FEW OR NO CLOUDS BELOW 12000 FEET WITH NO
SIGNIFICANT WEATHER AND/OR OBSTRUCTIONS TO VISIBILITY.

COZ001>005-013-030-031-251300-
...NORTHWEST COLORADO...

CITY           SKY/WX    TMP DP  RH WIND       PRES   REMARKS
CRAIG          FOG       35  34  96 SE3       30.48R VSB 1/2
HAYDEN         FAIR      36  30  80 CALM      30.48R
MEEKER         FAIR      34  34 100 CALM      30.48R
MOUNT WERNER   NOT AVBL
STEAMBOAT SPGS CLOUDY    39  38  97 CALM      30.48S
WALDEN           N/A     34  32  93 CALM      30.51R
$$

COZ006>008-011-251300-
...WEST CENTRAL VALLEYS...

CITY           SKY/WX    TMP DP  RH WIND       PRES   REMARKS
GRAND JUNCTION FAIR      46  37  71 NW3       30.40S
MONTROSE       FAIR      41  38  89 SE9       30.45R
EAGLE          FAIR      39  37  93 E5        30.50S
RIFLE          FAIR      40  38  93 CALM      30.45R
DELTA          FAIR      43  39  87 NE3       30.42R
NUCLA          FAIR      43  34  70 SE5       30.44R
$$

COZ017>023-064>068-251300-
...SOUTHWEST COLORADO...

CITY           SKY/WX    TMP DP  RH WIND       PRES   REMARKS
DURANGO        FAIR      34  29  82 CALM      30.34R
CORTEZ         FAIR      34  31  88 NE5       30.33R WCI  30
PAGOSA SPRINGS FAIR      42  27  55 NW5       30.39R
TELLURIDE      NOT AVBL
WOLF CREEK PAS FAIR      27  23  86 MISG      30.57R
$$

COZ009-010-012-014-032>034-037-058>063-251300-
...CENTRAL COLORADO...

CITY           SKY/WX    TMP DP  RH WIND       PRES   REMARKS
ASPEN          MOCLDY    37  35  92 S3        30.48R
BUENA VISTA    FAIR      31  25  77 E5        30.48R WCI  27
COPPER MTN     FOG       30  27  86 MISG      30.58R VSB 1
BERTHOUD PASS  CLOUDY    23   9  54 NW14G22   30.58R WCI  11
COTTONWOOD PAS FAIR      39  23  52 CALM      30.51S
GUNNISON       FAIR      32  30  92 N9        30.49R WCI  24
KREMMLING      FAIR      34  32  93 CALM      30.51R
LEADVILLE      FAIR      28  24  85 N7        30.51R WCI  21
MONARCH PASS   FAIR      28  23  80 E14       30.64S WCI  17
SALIDA         FAIR      34  27  77 CALM      30.54R
SUNLIGHT       FAIR      30  30 100 MISG      30.59R
WILKERSON PASS CLOUDY    30  27  86 E6        30.58R WCI  24
$$

COZ069>075-251300-
...SAN LUIS VALLEY/SANGRE DE CRISTO MOUNTAINS...

CITY           SKY/WX    TMP DP  RH WIND       PRES   REMARKS
ALAMOSA        FAIR      30  26  85 CALM      30.44R
LA VETA PASS   CLOUDY    32  28  86 MISG      30.52R
SAGUACHE       NOT AVBL
$$

COZ035-036-038>040-251300-
...NORTHERN COLORADO FRONT RANGE...

CITY           SKY/WX    TMP DP  RH WIND       PRES   REMARKS
DENVER INTL AP MOCLDY    40  31  70 S8        30.42R
DMNS CITY PARK NOT AVBL
AURORA         MOCLDY    41  32  72 SE8       30.43R
FRONT RANGE AP CLOUDY    43  32  65 SE3       30.43R
ERIE MUNI ARPT FAIR      49  34  56 SE7       30.39R
BOULDER MUN AP FAIR      48  34  57 CALM      30.39R
CENTENNIAL     MOCLDY    42  32  67 SE6       30.42R
BROOMFIELD     MOCLDY    46  36  66 SE3       30.41R
FORT COLLINS   MOCLDY    50  36  57 SW6       30.40R
LONGMONT       CLOUDY    50  40  67 CALM      30.41R
$$

COZ041-046-047-076>085-087-088-251300-
...PIKES PEAK/PALMER DIVIDE AND SOUTHERN FOOTHILLS...

CITY           SKY/WX    TMP DP  RH WIND       PRES   REMARKS
COLO. SPRINGS  MOCLDY    47  32  56 NW13      30.43R
A. F. ACADEMY  FAIR      40  30  68 N10       30.44R
SCHRIEVER AFB  NOT AVBL
ELLICOTT       NOT AVBL
FALCON         CLOUDY    43  31  62 N13G18    30.44R
FORT CARSON    CLOUDY    50  31  46 N17       30.40R
LIMON          CLOUDY    47  34  60 N13       30.39R
MONUMENT HILL  CLOUDY    34  30  86 CALM      30.47R
TRINIDAD       FAIR      40  31  70 W7        30.43R
$$

COZ042>045-048>051-090-091-251300-
...NORTHEAST COLORADO...

CITY           SKY/WX    TMP DP  RH WIND       PRES   REMARKS
GREELEY ARPT   CLOUDY    52  34  50 N10       30.40R
AKRON          FAIR      43  35  73 NW14      30.38R
BURLINGTON     FAIR      47  38  71 N9        30.33R
WRAY           NOT AVBL
STERLING       CLOUDY    43  37  81 N5        30.35S
HOLYOKE        FAIR      52  41  66 NW13G20   30.33R
FORT MORGAN    CLOUDY    49  34  54 NW9       30.39R
$$

COZ086-089-092>099-251300-
...SOUTHEAST COLORADO...

CITY           SKY/WX    TMP DP  RH WIND       PRES   REMARKS
PUEBLO         MOCLDY    52  34  50 SE6       30.38R
LA JUNTA       FAIR      49  36  61 W8        30.37R
LAMAR          FAIR      47  38  71 NW6       30.32R
SPRINGFIELD    NOT AVBL
$$




USA.gov is the U.S. government's official web portal to all federal, state and local government web resources and services.